QPF
0.00 0.00 0.00 0.00 0.00 0.00 0.00 0.00 0.00 0.00 0.00 0.00 0.00 0.00 0.00 0.00 0.00 0.00 0.00 0.00 0.00 0.00 0.00 0.00 0.02 0.05 0.03 0.01 0.00 0.00 0.00 0.00 0.00 0.00 0.00 0.00 0.00 0.00 0.00 0.00 0.00 0.01 0.01 0.00 0.00 0.00 0.00 0.00 0.00
0.00 0.00 0.00 0.00 0.00 0.00 0.00 0.00 0.00 0.00 0.00 0.00 0.00 0.00 0.00 0.00 0.00 0.00 0.00 0.00 0.00 0.00 0.00 0.00 0.01 0.03 0.01 0.00 0.00 0.00 0.00 0.00 0.00 0.00 0.01 0.00 0.00 0.00 0.00 0.00 0.01 0.01 0.01 0.00 0.00 0.00 0.00 0.00 0.01
0.00 0.00 0.00 0.00 0.00 0.00 0.00 0.00 0.00 0.00 0.00 0.00 0.00 0.00 0.00 0.00 0.00 0.00 0.00 0.00 0.00 0.00 0.00 0.00 0.00 0.00 0.00 0.00 0.00 0.00 0.00 0.00 0.00 0.00 0.01 0.00 0.00 0.00 0.00 0.00 0.00 0.01 0.01 0.00 0.00 0.00 0.00 0.00 0.03
0.00 0.00 0.00 0.00 0.00 0.00 0.00 0.00 0.00 0.00 0.00 0.00 0.00 0.00 0.00 0.00 0.00 0.00 0.00 0.00 0.00 0.00 0.00 0.00 0.00 0.00 0.00 0.00 0.00 0.00 0.00 0.00 0.00 0.02 0.00 0.00 0.00 0.00 0.00 0.00 0.00 0.00 0.00 0.00 0.00 0.00 0.00 0.01 0.04
0.00 0.00 0.00 0.00 0.00 0.00 0.00 0.00 0.00 0.00 0.00 0.00 0.00 0.00 0.00 0.00 0.00 0.00 0.00 0.00 0.00 0.00 0.00 0.00 0.00 0.00 0.00 0.00 0.00 0.01 0.01 0.01 0.02 0.02 0.00 0.00 0.00 0.00 0.00 0.00 0.00 0.00 0.00 0.00 0.00 0.00 0.00 0.03 0.03
0.00 0.00 0.00 0.00 0.00 0.00 0.00 0.00 0.00 0.00 0.00 0.00 0.00 0.00 0.00 0.00 0.00 0.00 0.00 0.00 0.00 0.00 0.00 0.00 0.00 0.00 0.00 0.00 0.00 0.00 0.00 0.01 0.01 0.00 0.00 0.00 0.00 0.00 0.00 0.00 0.00 0.00 0.00 0.00 0.01 0.00 0.02 0.04 0.00
0.00 0.00 0.00 0.00 0.00 0.00 0.00 0.00 0.00 0.00 0.00 0.00 0.00 0.00 0.00 0.00 0.00 0.00 0.00 0.00 0.00 0.00 0.00 0.00 0.00 0.00 0.00 0.00 0.00 0.00 0.00 0.00 0.00 0.00 0.00 0.00 0.00 0.00 0.00 0.00 0.00 0.00 0.01 0.01 0.01 0.02 0.03 0.01 0.00
0.00 0.00 0.00 0.00 0.00 0.00 0.00 0.00 0.00 0.00 0.00 0.00 0.00 0.00 0.00 0.00 0.00 0.00 0.00 0.00 0.00 0.00 0.00 0.00 0.00 0.00 0.00 0.00 0.00 0.00 0.00 0.00 0.00 0.00 0.00 0.00 0.00 0.00 0.00 0.00 0.00 0.01 0.02 0.02 0.01 0.01 0.00 0.00 0.00
0.00 0.00 0.00 0.00 0.00 0.00 0.00 0.00 0.00 0.00 0.00 0.00 0.00 0.00 0.00 0.00 0.00 0.00 0.00 0.00 0.00 0.00 0.00 0.00 0.00 0.00 0.00 0.00 0.00 0.00 0.00 0.00 0.00 0.00 0.00 0.00 0.00 0.00 0.00 0.00 0.00 0.00 0.02 0.03 0.00 0.00 0.00 0.00 0.00
0.00 0.00 0.00 0.00 0.00 0.00 0.00 0.00 0.00 0.00 0.00 0.00 0.00 0.00 0.00 0.00 0.00 0.00 0.00 0.00 0.00 0.00 0.00 0.00 0.00 0.00 0.00 0.00 0.00 0.00 0.00 0.00 0.00 0.00 0.00 0.00 0.00 0.00 0.00 0.00 0.00 0.00 0.01 0.01 0.00 0.00 0.00 0.00 0.00
0.01 0.00 0.00 0.00 0.00 0.00 0.00 0.00 0.00 0.00 0.00 0.00 0.00 0.00 0.00 0.00 0.00 0.00 0.00 0.00 0.00 0.00 0.00 0.00 0.00 0.00 0.00 0.00 0.00 0.00 0.00 0.00 0.00 0.00 0.00 0.00 0.00 0.00 0.00 0.00 0.00 0.00 0.00 0.00 0.00 0.00 0.00 0.00 0.00
0.02 0.01 0.00 0.00 0.00 0.00 0.00 0.00 0.00 0.00 0.00 0.00 0.00 0.00 0.00 0.00 0.00 0.00 0.00 0.00 0.00 0.00 0.00 0.00 0.00 0.00 0.00 0.00 0.00 0.00 0.00 0.00 0.00 0.00 0.00 0.00 0.00 0.00 0.00 0.00 0.00 0.00 0.00 0.00 0.00 0.00 0.00 0.00 0.00
0.02 0.01 0.00 0.00 0.00 0.00 0.00 0.00 0.00 0.00 0.00 0.00 0.00 0.00 0.00 0.00 0.00 0.00 0.00 0.00 0.00 0.00 0.00 0.00 0.00 0.00 0.00 0.00 0.00 0.00 0.00 0.00 0.00 0.00 0.00 0.00 0.00 0.00 0.00 0.00 0.00 0.00 0.00 0.00 0.00 0.00 0.00 0.00 0.00
0.00 0.01 0.00 0.00 0.00 0.00 0.00 0.00 0.00 0.00 0.00 0.00 0.00 0.00 0.00 0.00 0.01 0.00 0.00 0.00 0.00 0.00 0.00 0.00 0.00 0.00 0.00 0.00 0.00 0.00 0.00 0.00 0.00 0.00 0.00 0.00 0.00 0.00 0.00 0.00 0.00 0.00 0.00 0.00 0.00 0.00 0.00 0.00 0.00
0.00 0.00 0.01 0.00 0.00 0.00 0.00 0.00 0.00 0.00 0.00 0.00 0.00 0.00 0.00 0.00 0.01 0.00 0.00 0.00 0.00 0.00 0.00 0.00 0.00 0.00 0.00 0.00 0.00 0.00 0.00 0.00 0.00 0.00 0.00 0.00 0.00 0.00 0.00 0.00 0.00 0.00 0.00 0.00 0.00 0.00 0.00 0.00 0.00
0.00 0.00 0.01 0.00 0.00 0.00 0.00 0.00 0.00 0.00 0.00 0.00 0.00 0.00 0.00 0.00 0.00 0.00 0.00 0.00 0.00 0.00 0.00 0.00 0.00 0.00 0.00 0.00 0.00 0.00 0.00 0.00 0.00 0.00 0.00 0.00 0.00 0.00 0.00 0.00 0.00 0.00 0.00 0.00 0.00 0.00 0.00 0.00 0.00
0.00 0.00 0.00 0.00 0.00 0.02 0.01 0.00 0.00 0.00 0.00 0.00 0.00 0.00 0.00 0.00 0.00 0.00 0.00 0.00 0.00 0.00 0.00 0.00 0.00 0.00 0.00 0.00 0.00 0.00 0.00 0.00 0.00 0.00 0.00 0.00 0.00 0.00 0.00 0.00 0.00 0.00 0.00 0.00 0.00 0.00 0.00 0.00 0.00
0.00 0.00 0.00 0.00 0.01 0.04 0.01 0.00 0.00 0.00 0.00 0.00 0.00 0.00 0.00 0.00 0.00 0.00 0.00 0.00 0.00 0.00 0.00 0.00 0.00 0.00 0.00 0.00 0.00 0.00 0.00 0.00 0.00 0.00 0.00 0.00 0.00 0.00 0.00 0.00 0.00 0.00 0.00 0.00 0.00 0.00 0.00 0.00 0.00
0.00 0.00 0.00 0.00 0.00 0.01 0.01 0.01 0.00 0.00 0.00 0.00 0.00 0.00 0.00 0.00 0.00 0.00 0.00 0.00 0.00 0.00 0.00 0.00 0.00 0.00 0.00 0.00 0.00 0.00 0.00 0.00 0.00 0.00 0.00 0.00 0.00 0.00 0.00 0.00 0.00 0.00 0.00 0.00 0.00 0.00 0.00 0.00 0.00
0.00 0.00 0.00 0.00 0.00 0.01 0.00 0.00 0.00 0.00 0.00 0.00 0.00 0.00 0.00 0.00 0.00 0.00 0.00 0.00 0.00 0.00 0.00 0.00 0.00 0.00 0.00 0.00 0.00 0.00 0.00 0.00 0.00 0.00 0.00 0.00 0.00 0.00 0.00 0.00 0.00 0.00 0.00 0.00 0.00 0.00 0.00 0.00 0.00
0.00 0.00 0.00 0.00 0.00 0.01 0.01 0.01 0.00 0.00 0.00 0.00 0.00 0.00 0.00 0.00 0.00 0.00 0.00 0.00 0.00 0.00 0.00 0.00 0.00 0.00 0.00 0.00 0.00 0.00 0.00 0.00 0.00 0.00 0.00 0.00 0.00 0.00 0.00 0.00 0.00 0.00 0.00 0.00 0.00 0.00 0.00 0.00 0.00
0.00 0.00 0.00 0.00 0.01 0.00 0.01 0.01 0.00 0.00 0.00 0.00 0.00 0.00 0.00 0.00 0.00 0.00 0.00 0.00 0.00 0.00 0.00 0.00 0.00 0.00 0.00 0.00 0.00 0.00 0.00 0.00 0.00 0.00 0.00 0.00 0.00 0.00 0.00 0.00 0.00 0.00 0.00 0.00 0.00 0.00 0.00 0.00 0.00
0.00 0.00 0.00 0.00 0.00 0.00 0.00 0.01 0.00 0.00 0.00 0.00 0.00 0.00 0.00 0.00 0.00 0.00 0.00 0.00 0.00 0.00 0.00 0.00 0.00 0.00 0.00 0.00 0.00 0.00 0.00 0.00 0.00 0.00 0.00 0.00 0.00 0.00 0.00 0.00 0.00 0.00 0.00 0.00 0.00 0.00 0.00 0.00 0.00
0.00 0.01 0.02 0.02 0.01 0.00 0.00 0.00 0.00 0.00 0.00 0.00 0.00 0.00 0.00 0.00 0.00 0.00 0.00 0.00 0.00 0.00 0.00 0.00 0.00 0.00 0.00 0.00 0.00 0.00 0.00 0.00 0.00 0.00 0.00 0.00 0.00 0.00 0.00 0.00 0.00 0.00 0.00 0.00 0.00 0.00 0.00 0.00 0.00
0.01 0.04 0.03 0.02 0.01 0.00 0.00 0.00 0.00 0.00 0.00 0.00 0.00 0.00 0.00 0.00 0.00 0.00 0.00 0.00 0.00 0.00 0.00 0.00 0.00 0.00 0.00 0.00 0.00 0.00 0.00 0.00 0.00 0.00 0.00 0.00 0.00 0.00 0.00 0.00 0.00 0.00 0.00 0.00 0.00 0.00 0.00 0.00 0.00
0.01 0.01 0.01 0.01 0.02 0.01 0.00 0.01 0.00 0.00 0.00 0.00 0.00 0.00 0.00 0.00 0.00 0.00 0.00 0.00 0.00 0.00 0.00 0.00 0.00 0.00 0.00 0.00 0.00 0.00 0.00 0.00 0.00 0.00 0.00 0.00 0.00 0.00 0.00 0.00 0.00 0.00 0.00 0.00 0.00 0.00 0.00 0.00 0.00
0.01 0.01 0.00 0.01 0.01 0.01 0.01 0.00 0.00 0.00 0.00 0.00 0.00 0.00 0.00 0.00 0.00 0.00 0.00 0.00 0.00 0.00 0.00 0.01 0.01 0.00 0.00 0.00 0.00 0.00 0.00 0.00 0.00 0.00 0.00 0.00 0.00 0.00 0.00 0.00 0.00 0.00 0.00 0.00 0.00 0.00 0.00 0.00 0.00
0.02 0.00 0.00 0.01 0.01 0.01 0.01 0.00 0.00 0.00 0.00 0.00 0.00 0.00 0.00 0.00 0.00 0.00 0.00 0.00 0.00 0.00 0.00 0.00 0.01 0.00 0.00 0.00 0.00 0.00 0.00 0.00 0.00 0.00 0.00 0.00 0.00 0.00 0.00 0.00 0.00 0.00 0.00 0.00 0.01 0.01 0.00 0.00 0.00
0.01 0.00 0.01 0.01 0.00 0.01 0.01 0.00 0.00 0.00 0.00 0.00 0.00 0.00 0.00 0.00 0.00 0.00 0.00 0.00 0.00 0.00 0.00 0.00 0.00 0.01 0.01 0.00 0.00 0.00 0.00 0.00 0.00 0.00 0.00 0.00 0.00 0.00 0.00 0.00 0.00 0.00 0.00 0.00 0.01 0.00 0.00 0.00 0.00
0.00 0.00 0.00 0.01 0.00 0.00 0.00 0.00 0.00 0.00 0.00 0.00 0.00 0.00 0.00 0.00 0.00 0.00 0.00 0.00 0.00 0.00 0.00 0.00 0.00 0.00 0.01 0.02 0.00 0.00 0.00 0.00 0.00 0.00 0.00 0.00 0.00 0.00 0.00 0.00 0.00 0.00 0.01 0.01 0.01 0.00 0.00 0.00 0.00
MSLP
1013.98 1013.80 1013.90 1013.89 1015.17 1015.36 1015.07 1014.36 1013.68 1013.40 1013.31 1013.32 1013.63 1014.30 1014.71 1015.38 1015.98 1016.90 1016.13 1016.21 1016.25 1016.46 1016.76 1017.04 1017.44 1017.84 1018.33 1018.71 1019.12 1019.53 1019.92 1020.14 1020.30 1020.55 1020.77 1020.94 1021.07 1021.22 1021.36 1021.43 1021.39 1021.37 1021.51 1021.69 1021.74 1021.84 1021.97 1021.93 1021.76
1014.01 1014.00 1014.24 1014.63 1015.35 1015.55 1014.85 1013.94 1013.43 1012.96 1013.15 1013.29 1013.56 1014.22 1014.77 1015.45 1015.74 1016.18 1016.39 1016.39 1016.31 1016.57 1016.75 1017.28 1017.70 1018.05 1018.52 1018.98 1019.31 1019.75 1020.08 1020.30 1020.51 1020.68 1020.96 1021.12 1021.31 1021.42 1021.61 1021.64 1021.67 1021.66 1021.79 1022.07 1022.13 1022.18 1022.26 1022.27 1022.14
1013.88 1014.38 1014.89 1014.99 1015.44 1015.18 1014.41 1013.38 1012.86 1012.77 1013.17 1013.18 1013.84 1014.40 1014.95 1015.39 1015.82 1016.02 1015.82 1016.29 1016.44 1016.90 1017.12 1017.48 1017.99 1018.30 1018.72 1019.15 1019.47 1019.88 1020.18 1020.47 1020.56 1020.84 1021.06 1021.32 1021.56 1021.69 1021.94 1021.99 1022.02 1022.06 1022.12 1022.50 1022.52 1022.60 1022.62 1022.55 1022.59
1014.12 1014.78 1015.32 1015.19 1015.19 1014.38 1013.62 1012.80 1012.49 1012.94 1013.16 1013.28 1013.96 1014.94 1015.27 1015.37 1015.45 1015.68 1015.95 1016.12 1016.77 1017.23 1017.52 1017.78 1018.21 1018.62 1018.93 1019.32 1019.65 1020.00 1020.30 1020.62 1020.81 1021.03 1021.30 1021.55 1021.82 1022.05 1022.21 1022.35 1022.31 1022.40 1022.60 1022.69 1022.86 1022.94 1022.91 1022.94 1023.01
1014.65 1015.56 1015.90 1015.60 1014.76 1013.85 1013.14 1012.68 1012.42 1012.82 1012.95 1013.50 1013.90 1014.96 1015.59 1015.60 1015.47 1015.80 1016.00 1016.33 1016.97 1017.52 1017.80 1018.09 1018.51 1018.83 1019.10 1019.43 1019.71 1020.06 1020.36 1020.59 1020.88 1021.21 1021.55 1021.90 1022.11 1022.38 1022.52 1022.59 1022.69 1022.83 1022.95 1022.98 1023.15 1023.24 1023.24 1023.35 1023.58
1015.58 1015.96 1016.30 1015.75 1014.61 1013.42 1012.55 1012.22 1012.35 1012.43 1012.79 1013.52 1014.05 1014.98 1015.90 1015.93 1015.87 1016.11 1016.18 1016.63 1017.05 1017.68 1017.96 1018.31 1018.70 1019.12 1019.35 1019.67 1019.83 1020.09 1020.37 1020.65 1020.94 1021.36 1021.89 1022.11 1022.29 1022.51 1022.69 1022.87 1022.99 1023.13 1023.27 1023.33 1023.47 1023.60 1023.77 1023.96 1024.15
1015.86 1016.19 1015.87 1015.37 1014.48 1013.32 1012.16 1011.77 1012.03 1012.09 1012.58 1012.97 1013.62 1015.05 1016.17 1016.37 1016.23 1016.10 1016.42 1016.87 1017.27 1017.73 1018.14 1018.44 1018.88 1019.26 1019.56 1019.87 1020.09 1020.28 1020.56 1020.89 1021.19 1021.68 1022.03 1022.26 1022.49 1022.75 1022.98 1023.14 1023.20 1023.31 1023.36 1023.60 1023.75 1023.94 1024.25 1024.50 1024.70
1016.00 1016.31 1015.74 1014.92 1014.29 1013.11 1012.00 1011.68 1011.63 1011.83 1012.31 1012.66 1012.82 1014.25 1015.48 1015.69 1016.16 1016.37 1016.67 1017.25 1017.62 1017.92 1018.35 1018.61 1019.02 1019.39 1019.78 1020.15 1020.36 1020.55 1020.78 1021.08 1021.50 1021.90 1022.24 1022.54 1022.77 1023.05 1023.24 1023.40 1023.44 1023.46 1023.55 1023.87 1024.07 1024.48 1024.72 1025.09 1025.26
1015.78 1016.30 1015.57 1014.70 1013.89 1013.09 1012.23 1011.74 1011.77 1011.87 1012.24 1012.57 1012.83 1013.29 1013.74 1015.00 1016.07 1016.48 1016.92 1017.40 1017.70 1018.16 1018.55 1018.79 1019.15 1019.56 1019.90 1020.27 1020.57 1020.74 1021.05 1021.41 1021.79 1022.16 1022.51 1022.84 1023.06 1023.33 1023.54 1023.64 1023.63 1023.69 1023.80 1024.25 1024.68 1024.96 1025.31 1025.56 1025.85
1015.60 1015.61 1015.21 1014.28 1013.50 1012.85 1012.50 1012.12 1011.74 1012.16 1012.45 1012.84 1013.06 1013.67 1014.02 1015.11 1015.93 1016.02 1016.35 1016.72 1017.35 1017.82 1018.34 1018.58 1019.02 1019.54 1019.96 1020.24 1020.77 1020.97 1021.26 1021.71 1022.04 1022.37 1022.75 1023.06 1023.23 1023.45 1023.61 1023.81 1024.04 1024.05 1024.21 1024.67 1025.09 1025.42 1025.69 1025.95 1026.27
1015.08 1014.92 1014.68 1014.08 1013.50 1012.91 1012.64 1012.42 1012.16 1011.97 1012.46 1012.26 1012.49 1013.53 1014.23 1015.03 1015.76 1016.06 1016.22 1016.31 1016.88 1017.46 1018.06 1018.36 1018.75 1019.43 1019.90 1020.28 1020.80 1021.16 1021.41 1021.80 1022.19 1022.49 1022.82 1023.09 1023.31 1023.61 1023.86 1024.08 1024.26 1024.48 1024.70 1025.13 1025.55 1025.99 1026.16 1026.39 1026.69
1015.57 1014.95 1014.56 1013.94 1013.48 1013.11 1012.86 1012.57 1012.35 1011.99 1011.78 1011.96 1012.11 1013.04 1013.94 1014.63 1014.97 1015.18 1015.61 1015.93 1016.46 1017.23 1017.87 1018.25 1018.56 1019.32 1019.86 1020.14 1020.64 1021.14 1021.49 1021.86 1022.23 1022.52 1022.85 1023.13 1023.42 1023.74 1024.09 1024.27 1024.51 1024.76 1025.08 1025.57 1025.97 1026.32 1026.55 1026.85 1027.17
1015.61 1015.17 1014.60 1013.92 1013.45 1013.22 1012.91 1012.77 1012.55 1011.88 1011.46 1011.66 1012.13 1012.77 1013.19 1013.92 1014.27 1015.00 1015.51 1016.00 1016.48 1017.02 1017.60 1018.09 1018.33 1018.93 1019.60 1019.96 1020.51 1020.98 1021.39 1021.68 1022.01 1022.44 1022.73 1022.99 1023.38 1023.71 1024.07 1024.39 1024.68 1024.95 1025.24 1025.67 1026.24 1026.63 1026.87 1027.23 1027.52
1016.59 1016.08 1014.90 1013.99 1013.54 1013.28 1013.15 1012.90 1012.90 1011.72 1011.61 1011.64 1012.22 1012.53 1012.85 1013.22 1013.73 1014.63 1014.84 1015.11 1015.83 1016.53 1017.05 1017.81 1018.21 1018.58 1019.26 1019.72 1020.25 1020.71 1021.22 1021.50 1021.85 1022.21 1022.52 1022.79 1023.18 1023.51 1023.96 1024.47 1024.84 1025.20 1025.51 1025.91 1026.31 1026.78 1027.25 1027.54 1027.88
1016.62 1016.30 1014.76 1013.51 1013.65 1013.51 1013.48 1012.79 1011.60 1011.85 1011.89 1011.69 1012.48 1012.65 1012.97 1013.16 1013.82 1013.40 1013.82 1014.15 1014.72 1015.61 1016.54 1017.30 1017.93 1018.34 1018.99 1019.46 1020.00 1020.46 1020.86 1021.28 1021.67 1021.93 1022.22 1022.53 1022.92 1023.28 1023.59 1024.29 1024.94 1025.32 1025.71 1026.11 1026.51 1026.94 1027.25 1027.86 1028.39
1017.41 1016.51 1014.95 1013.65 1013.82 1013.81 1013.93 1010.00 1011.38 1011.47 1011.94 1011.75 1011.91 1012.53 1012.84 1012.86 1013.07 1013.65 1013.92 1014.32 1014.77 1015.46 1016.18 1017.04 1017.52 1018.04 1018.65 1019.26 1019.69 1020.16 1020.62 1020.98 1021.37 1021.62 1021.99 1022.27 1022.65 1022.99 1023.65 1024.15 1024.77 1025.18 1025.71 1026.13 1026.60 1027.09 1027.44 1028.19 1028.96
1017.93 1016.21 1015.52 1014.43 1013.41 1013.87 1013.26 1010.06 1011.17 1011.41 1011.63 1011.79 1011.51 1012.08 1012.44 1012.63 1013.03 1013.19 1013.64 1014.14 1014.75 1015.11 1015.98 1016.67 1017.13 1017.64 1018.30 1018.92 1019.45 1019.93 1020.31 1020.72 1021.09 1021.37 1021.72 1021.95 1022.36 1022.87 1023.40 1023.92 1024.63 1025.02 1025.55 1026.12 1026.50 1027.14 1027.51 1028.61 1029.41
1018.34 1017.48 1016.39 1015.07 1014.12 1013.62 1012.88 1011.24 1011.44 1011.28 1011.29 1011.42 1011.49 1011.39 1012.09 1012.24 1011.94 1012.49 1013.18 1013.66 1014.32 1014.93 1015.48 1016.05 1016.54 1017.22 1017.95 1018.56 1019.18 1019.82 1020.28 1020.50 1020.77 1021.03 1021.31 1021.65 1022.08 1022.57 1023.16 1023.79 1024.33 1024.94 1025.57 1026.13 1026.67 1027.16 1027.84 1028.64 1029.48
1018.32 1017.82 1016.92 1015.33 1014.66 1014.51 1012.85 1011.89 1011.72 1011.24 1011.00 1010.94 1011.16 1011.26 1011.36 1011.60 1011.39 1012.12 1012.76 1013.29 1013.85 1014.69 1015.04 1015.53 1016.06 1016.76 1017.48 1018.26 1018.79 1019.49 1019.81 1020.18 1020.54 1020.68 1020.86 1021.32 1021.75 1022.26 1022.91 1023.56 1024.15 1024.66 1025.22 1025.81 1026.46 1027.49 1028.22 1029.33 1029.74
1018.58 1018.12 1017.08 1016.22 1015.13 1015.12 1013.49 1011.98 1011.24 1010.81 1010.30 1010.41 1010.56 1010.69 1010.51 1010.76 1011.45 1011.72 1012.14 1012.67 1013.02 1013.79 1014.31 1014.92 1015.26 1016.03 1016.76 1017.30 1018.00 1018.68 1019.33 1019.83 1019.99 1020.31 1020.59 1020.89 1021.35 1021.93 1022.51 1023.00 1023.68 1024.23 1025.02 1025.68 1026.17 1026.68 1027.97 1028.81 1029.18
1017.77 1017.90 1016.93 1016.74 1016.19 1015.17 1014.33 1011.47 1010.74 1009.64 1009.14 1009.20 1009.17 1009.43 1009.64 1009.63 1010.47 1011.20 1011.66 1011.71 1012.32 1013.00 1013.23 1013.92 1014.56 1015.18 1015.93 1016.77 1017.63 1018.53 1019.28 1019.92 1020.23 1020.33 1020.53 1020.73 1021.06 1021.57 1022.09 1022.62 1023.11 1023.76 1024.29 1025.07 1025.74 1026.28 1026.72 1027.94 1028.85
1017.36 1016.13 1016.55 1016.81 1016.90 1015.44 1014.49 1011.23 1009.63 1009.37 1008.38 1008.08 1008.07 1008.56 1008.65 1008.97 1009.35 1010.07 1010.61 1011.13 1011.05 1011.26 1012.39 1013.06 1013.68 1014.33 1015.24 1015.98 1016.80 1017.36 1017.87 1018.64 1018.90 1019.20 1019.91 1020.35 1020.81 1021.29 1021.77 1022.20 1022.73 1023.27 1023.84 1024.39 1024.87 1025.40 1026.16 1026.94 1028.01
1015.39 1016.19 1016.56 1016.85 1016.39 1016.03 1014.36 1014.07 1008.74 1008.29 1007.32 1006.48 1006.57 1007.14 1007.59 1007.65 1008.08 1008.88 1009.51 1009.57 1009.75 1010.89 1011.51 1012.26 1013.07 1013.63 1014.34 1015.06 1015.57 1016.38 1017.08 1017.54 1018.21 1018.83 1019.51 1020.08 1020.55 1020.90 1021.37 1021.76 1022.33 1022.85 1023.38 1023.81 1024.30 1024.80 1025.38 1026.09 1026.97
1015.29 1016.17 1016.22 1016.44 1016.32 1014.91 1012.22 1013.54 1008.93 1007.02 1004.76 1004.83 1005.35 1005.73 1006.24 1006.83 1006.93 1007.46 1008.02 1008.52 1009.18 1010.02 1010.86 1011.36 1011.98 1012.43 1013.29 1014.05 1014.58 1015.23 1015.96 1016.90 1017.80 1018.42 1019.01 1019.59 1020.14 1020.57 1020.88 1021.36 1021.91 1022.40 1022.80 1023.24 1023.57 1023.95 1024.76 1025.41 1025.98
1015.20 1015.80 1015.68 1015.67 1014.29 1011.69 1010.87 1011.49 1008.85 1005.64 1004.76 1004.04 1004.09 1004.39 1004.66 1005.61 1005.80 1006.25 1006.99 1007.67 1008.23 1008.94 1009.62 1010.40 1010.99 1011.47 1012.15 1013.01 1013.60 1014.12 1014.85 1015.74 1016.51 1017.31 1017.95 1018.76 1019.57 1020.03 1020.41 1020.85 1021.50 1022.04 1022.32 1022.71 1023.18 1023.68 1024.37 1024.74 1025.53
1013.88 1014.48 1013.95 1013.15 1011.85 1009.63 1010.60 1009.97 1007.09 1005.63 1004.83 1004.19 1004.05 1004.03 1004.35 1004.61 1004.80 1004.92 1005.40 1006.15 1006.82 1007.63 1008.14 1009.11 1009.75 1010.38 1011.14 1011.68 1012.45 1013.12 1013.93 1014.68 1015.42 1016.24 1016.92 1017.55 1018.16 1018.75 1019.38 1020.12 1020.69 1021.17 1021.74 1022.29 1022.70 1023.19 1023.70 1024.15 1024.84
1013.13 1013.51 1012.86 1013.01 1011.21 1010.52 1008.69 1008.45 1006.10 1005.85 1005.58 1005.54 1005.24 1005.19 1004.65 1004.19 1004.17 1004.25 1004.56 1005.06 1005.62 1006.53 1007.04 1007.75 1008.65 1009.41 1009.98 1010.64 1011.62 1012.28 1013.08 1013.80 1014.57 1015.41 1016.14 1016.79 1017.41 1018.13 1018.79 1019.33 1020.10 1020.67 1021.14 1021.72 1022.31 1022.74 1023.37 1024.20 1024.40
1012.30 1012.21 1012.66 1012.64 1011.13 1008.96 1006.43 1007.32 1007.45 1007.07 1006.98 1006.98 1006.64 1006.48 1005.44 1004.24 1004.21 1004.14 1004.24 1004.48 1004.86 1005.37 1005.90 1006.98 1007.56 1008.00 1008.75 1009.89 1010.78 1011.36 1012.15 1013.04 1013.84 1014.78 1015.41 1016.15 1016.82 1017.43 1018.10 1018.66 1019.23 1019.88 1020.46 1020.98 1021.63 1022.28 1022.85 1023.63 1024.24
1011.40 1011.66 1011.17 1010.93 1010.60 1008.68 1007.69 1008.76 1008.59 1008.71 1008.53 1008.36 1007.72 1007.38 1005.21 1005.00 1005.01 1004.74 1004.44 1004.25 1004.59 1005.16 1006.01 1006.57 1007.24 1007.85 1008.42 1009.10 1009.75 1010.52 1011.24 1012.22 1013.16 1013.95 1014.61 1015.28 1016.08 1016.62 1017.31 1017.90 1018.56 1019.12 1019.68 1020.32 1021.01 1021.60 1022.57 1023.53 1024.10
1009.82 1009.71 1010.34 1010.08 1009.48 1008.85 1008.04 1009.53 1009.28 1009.22 1008.99 1008.97 1008.55 1007.58 1007.04 1007.01 1006.69 1006.06 1005.63 1005.20 1005.20 1005.32 1005.65 1006.23 1006.95 1007.76 1008.01 1008.68 1009.42 1009.83 1010.57 1011.43 1012.30 1013.05 1013.64 1014.39 1014.93 1015.43 1016.05 1017.04 1017.80 1018.40 1018.84 1019.34 1020.24 1021.00 1021.39 1022.48 1023.39
Thickness
5686 5690 5692 5689 5663 5660 5659 5673 5689 5694 5698 5704 5706 5700 5698 5699 5696 5684 5704 5706 5709 5709 5706 5705 5704 5701 5697 5695 5692 5690 5688 5688 5688 5687 5687 5686 5686 5686 5685 5684 5684 5683 5681 5679 5677 5674 5671 5670 5670
5684 5686 5682 5671 5651 5647 5657 5677 5685 5697 5700 5702 5705 5702 5700 5696 5698 5696 5699 5704 5707 5707 5707 5704 5703 5701 5697 5694 5692 5689 5688 5687 5687 5686 5686 5685 5685 5684 5682 5682 5681 5680 5678 5674 5672 5670 5668 5666 5666
5680 5679 5669 5659 5644 5650 5659 5682 5691 5699 5696 5705 5699 5698 5697 5696 5696 5698 5705 5704 5703 5703 5703 5703 5701 5700 5697 5694 5692 5689 5688 5687 5687 5686 5685 5684 5683 5682 5680 5679 5678 5676 5674 5670 5668 5666 5664 5663 5661
5670 5666 5662 5649 5651 5667 5676 5689 5697 5690 5698 5703 5698 5687 5695 5699 5699 5702 5702 5702 5701 5699 5699 5699 5698 5696 5695 5693 5691 5689 5688 5686 5686 5685 5684 5682 5681 5679 5678 5676 5675 5674 5671 5668 5665 5662 5661 5660 5658
5662 5650 5641 5643 5657 5673 5678 5687 5691 5688 5696 5694 5698 5686 5685 5696 5701 5699 5700 5700 5697 5695 5695 5695 5694 5693 5693 5692 5691 5689 5687 5686 5685 5683 5681 5680 5678 5676 5675 5673 5672 5669 5667 5665 5662 5659 5658 5657 5653
5646 5642 5630 5634 5654 5673 5683 5687 5689 5691 5694 5689 5690 5683 5683 5691 5694 5695 5697 5695 5693 5692 5692 5692 5691 5690 5691 5689 5689 5689 5688 5686 5685 5682 5679 5678 5676 5674 5672 5670 5669 5667 5664 5661 5658 5656 5654 5651 5648
5638 5632 5630 5641 5651 5665 5679 5688 5685 5688 5688 5690 5692 5678 5679 5683 5688 5693 5693 5692 5690 5689 5689 5690 5689 5687 5687 5687 5687 5687 5686 5684 5683 5679 5678 5676 5674 5672 5670 5667 5666 5664 5662 5658 5655 5653 5649 5645 5643
5631 5628 5632 5638 5645 5656 5679 5681 5690 5687 5686 5694 5696 5682 5676 5683 5685 5688 5688 5687 5686 5686 5685 5686 5686 5685 5684 5683 5684 5684 5684 5683 5680 5678 5676 5674 5672 5669 5667 5665 5663 5662 5659 5655 5652 5648 5645 5640 5638
5631 5618 5620 5636 5643 5655 5672 5674 5680 5686 5683 5689 5694 5693 5695 5688 5684 5683 5682 5681 5683 5683 5682 5682 5683 5681 5681 5680 5680 5681 5680 5679 5677 5674 5673 5671 5669 5666 5663 5661 5661 5659 5656 5652 5647 5645 5641 5637 5633
5621 5615 5624 5643 5650 5653 5661 5665 5670 5673 5677 5681 5687 5686 5690 5684 5679 5682 5682 5681 5680 5680 5679 5680 5679 5678 5678 5678 5677 5677 5677 5675 5674 5672 5670 5668 5667 5664 5662 5659 5657 5655 5652 5647 5643 5640 5637 5634 5630
5621 5617 5629 5639 5645 5651 5654 5656 5662 5667 5666 5684 5687 5679 5681 5678 5675 5676 5680 5682 5679 5677 5677 5677 5676 5675 5675 5676 5675 5674 5674 5673 5671 5669 5667 5666 5664 5661 5659 5656 5654 5652 5649 5643 5638 5634 5632 5628 5624
5601 5616 5624 5635 5640 5644 5645 5651 5653 5660 5674 5685 5689 5681 5679 5676 5678 5680 5678 5679 5678 5676 5675 5676 5675 5673 5673 5673 5672 5671 5670 5669 5668 5666 5664 5664 5661 5658 5655 5653 5651 5648 5644 5639 5634 5630 5627 5622 5618
5595 5606 5618 5629 5633 5636 5641 5641 5645 5654 5669 5681 5682 5679 5681 5680 5680 5678 5677 5677 5676 5673 5673 5671 5672 5671 5670 5671 5670 5669 5668 5668 5666 5663 5662 5661 5659 5656 5653 5650 5648 5644 5640 5636 5630 5625 5621 5617 5612
5577 5583 5601 5620 5624 5629 5630 5632 5633 5656 5662 5670 5672 5675 5679 5680 5679 5674 5677 5680 5677 5673 5672 5669 5669 5669 5668 5668 5668 5667 5666 5665 5663 5662 5661 5659 5657 5654 5650 5647 5644 5640 5636 5632 5627 5622 5616 5612 5606
5574 5573 5593 5612 5618 5616 5619 5618 5633 5649 5654 5660 5661 5665 5671 5674 5672 5681 5679 5680 5679 5676 5670 5667 5665 5666 5665 5665 5665 5665 5664 5662 5661 5661 5659 5658 5655 5652 5649 5645 5640 5635 5631 5627 5623 5617 5611 5605 5598
5555 5564 5574 5600 5601 5603 5601 5633 5640 5644 5642 5651 5658 5657 5663 5670 5672 5672 5672 5674 5674 5671 5669 5665 5664 5664 5662 5661 5662 5662 5661 5661 5659 5658 5657 5656 5653 5650 5647 5643 5637 5633 5628 5623 5618 5612 5607 5599 5591
5530 5552 5560 5569 5591 5589 5595 5631 5632 5630 5632 5638 5651 5653 5658 5664 5664 5669 5671 5670 5668 5666 5663 5661 5661 5660 5659 5658 5658 5659 5658 5658 5657 5656 5655 5654 5651 5648 5645 5641 5635 5631 5626 5620 5615 5609 5604 5593 5585
5513 5518 5539 5551 5571 5579 5589 5605 5620 5622 5624 5630 5639 5649 5651 5658 5669 5667 5666 5666 5664 5661 5661 5660 5660 5657 5656 5654 5654 5654 5654 5655 5655 5655 5654 5652 5650 5647 5643 5638 5633 5627 5620 5615 5610 5605 5598 5590 5580
5499 5498 5507 5544 5553 5542 5577 5592 5595 5613 5614 5619 5627 5636 5648 5655 5667 5663 5660 5663 5662 5658 5660 5661 5659 5656 5654 5653 5653 5652 5654 5653 5652 5653 5653 5650 5649 5646 5641 5636 5630 5624 5618 5613 5606 5597 5590 5578 5573
5481 5480 5490 5514 5535 5530 5554 5568 5591 5599 5612 5613 5622 5630 5644 5653 5655 5660 5659 5661 5664 5659 5660 5659 5659 5655 5654 5655 5654 5653 5651 5650 5651 5651 5651 5649 5648 5644 5640 5636 5629 5623 5615 5609 5604 5599 5586 5577 5572
5468 5464 5485 5489 5511 5518 5522 5557 5575 5600 5616 5619 5626 5635 5641 5653 5657 5656 5656 5663 5663 5661 5664 5660 5658 5656 5653 5652 5650 5645 5645 5645 5647 5648 5647 5646 5645 5642 5638 5633 5629 5622 5616 5608 5601 5596 5590 5578 5569
5453 5483 5480 5480 5477 5489 5516 5544 5572 5583 5602 5614 5626 5626 5639 5649 5658 5659 5660 5661 5668 5673 5665 5662 5660 5658 5654 5652 5651 5651 5653 5650 5650 5650 5647 5645 5641 5639 5634 5631 5626 5621 5614 5608 5603 5596 5589 5580 5570
5465 5467 5463 5463 5468 5470 5500 5490 5566 5586 5597 5618 5631 5636 5642 5653 5659 5658 5662 5670 5675 5668 5667 5664 5658 5658 5656 5655 5656 5653 5653 5652 5648 5646 5646 5643 5639 5636 5633 5629 5624 5619 5612 5606 5600 5594 5589 5581 5571
5464 5450 5455 5455 5457 5454 5516 5489 5550 5586 5627 5635 5634 5639 5646 5647 5660 5663 5668 5671 5669 5667 5663 5665 5664 5664 5659 5657 5658 5657 5656 5651 5645 5645 5644 5640 5635 5634 5631 5626 5620 5615 5610 5604 5598 5593 5585 5577 5570
5444 5436 5399 5439 5457 5478 5534 5512 5541 5599 5616 5632 5637 5642 5650 5651 5660 5664 5666 5668 5671 5671 5670 5668 5669 5669 5666 5661 5661 5661 5659 5655 5651 5646 5645 5640 5633 5631 5627 5623 5617 5611 5606 5600 5594 5588 5581 5575 5567
5437 5439 5451 5466 5475 5525 5528 5516 5562 5597 5610 5624 5636 5639 5642 5646 5660 5669 5674 5674 5675 5675 5676 5671 5672 5673 5670 5668 5664 5664 5660 5657 5653 5648 5645 5642 5639 5634 5626 5620 5615 5610 5603 5596 5590 5583 5578 5571 5564
5438 5434 5475 5464 5490 5514 5540 5550 5589 5588 5597 5605 5613 5617 5631 5647 5657 5668 5674 5676 5678 5676 5678 5676 5673 5672 5672 5671 5663 5662 5659 5657 5653 5647 5641 5638 5636 5630 5622 5617 5611 5605 5600 5592 5586 5581 5572 5563 5557
5458 5478 5461 5466 5484 5535 5555 5561 5564 5574 5584 5589 5596 5600 5618 5635 5646 5661 5669 5674 5679 5680 5680 5675 5675 5675 5675 5667 5663 5662 5659 5654 5650 5642 5638 5635 5631 5625 5618 5613 5610 5604 5597 5590 5583 5575 5569 5559 5550
5464 5458 5485 5490 5490 5525 5557 5542 5551 5550 5559 5568 5577 5588 5614 5620 5629 5643 5660 5669 5674 5674 5669 5670 5668 5669 5668 5667 5664 5661 5658 5650 5645 5640 5635 5632 5626 5622 5615 5609 5605 5602 5595 5588 5579 5572 5562 5551 5540
5494 5499 5503 5494 5519 5522 5537 5521 5539 5544 5555 5561 5568 5582 5592 5595 5602 5616 5632 5649 5657 5662 5666 5665 5663 5659 5662 5660 5657 5657 5653 5648 5642 5637 5634 5626 5625 5622 5617 5608 5601 5596 5591 5585 5576 5567 5561 5551 5538